Location: St. Louis
(38.6270°N, 90.1994°W)
Time: 20:48:15
(UTC-06:00)

Vanguard 1 - Pass Details

Date: 01 December 2021
Orbit: 652 x 3830 km, 34.2° (Epoch: 21 January)

Event Time Altitude Azimuth Distance (km) Brightness Sun altitude
Rises 22:03:04 0° 209° (SSW) 6,713 14.3 -61.7°
Reaches altitude 10° 22:07:33 10° 201° (SSW) 6,055 14.0 -62.5°
Enters shadow 22:08:04 11° 201° (SSW) 5,987 13.9 -62.5°
Exits shadow 22:49:51 - 76° (ENE) 7,189 14.4 -68.9°
Sets 22:50:49 0° 75° (ENE) 7,337 14.4 -69.1°
